STARLINK-4681, 53594

Orbit data source: Space-Track

STARLINK-4681, 53594 is a payload satellite owned by SpaceX/Seattle (US) in LEO that was launched on Sun, 28 Aug 2022 UTC via an FALCON 9 launch vehicle from the Air Force Eastern Test Range (AFETR). Payload-class satellites include a variety of spacecraft equipped with specific instruments for various scientific and technological missions. These include communications satellites like Starlink; space stations such as the ISS; scientific satellites like the Hubble; Earth observation satellites from companies like Planet Labs, Umbra, and HawkEye 360; GPS; miniature CubeSats for education and research; and military/defense satellites.

Not visible in the next 10 days
Identifier
53594, 2022-104G
Orbit
LEO
Country
Flag of USUS
Related business
Manufacturer
SpaceX/Seattle
Mission
Partially operational Commercial Communications
Bus & Motor
STARLINK, Unknown motor
Mass
300 kg wet, ~290 kg dry
Launch date (UTC)
2022-08-28 (4 years ago)
Launch vehicle
FALCON 9
Launch site
Air Force Eastern Test Range (AFETR)
Object type
Payload
Rocket body
Debris
Shape & HBR
Box + 1 Pan, 10.1 m
Radar Cross Section
13.562 m², Large (>1 m²)

Expand to show TLE details & history
Last TLE update: 6 hours ago

TLE from 6 hours ago
0 STARLINK-4681
1 53594U 22104G   26173.20325451  .00491557  13176-3  54607-3 0  9993
2 53594  53.2114 100.6952 0000600 284.9011  75.1958 16.08966703212341
Epoch: 2026-06-22T04:52Z
TLE epoch observation values (Epoch: 2026-06-22T04:52:41.189Z)
Latitude
-0.00004°
Longitude
117.13101°
Altitude
250.514 km
Speed
7.758 km/s
True Right ascension
06h 42m 46s
True Declination
0° 00' 00"
Sunlit
Object was in daylight at epoch
Visualization orbit readout
Latitude
Unknown
Longitude
Unknown
Altitude
Unknown
Speed
Unknown
Apparent Right ascension
Unknown
Apparent Declination
Unknown
Sunlit
N/A
Visualization observer readout
Local Sidereal Time
21:38:45
Azimuth
Unknown
Elevation
Unknown
Doppler factor
Unknown
Orbital elements
Apogee altitude
250.333 km
Perigee altitude
249.538 km
Semi-major axis
6,628.073 km
Eccentricity
0.00006
Inclination
53.2114°
RAAN
100.6952°
Arg. of periapsis
284.9011°
True anomaly
75.20245°
Mean anomaly
75.1958°
Eccentric anomaly
75.19912°
Mean motion
4.02219 °/min
Orbital period
89.5 mins
BSTAR
0.00054607
Loading maneuver chart data...
Computing Atmospheric mass density...
Loading historical data...
Loading historical data...
Loading historical data...
Loading historical data...
Loading historical data...
Loading historical data...
Loading historical data...

Documentation

Showing up to 5 results
|